[[{"header":{"parameterUnit":"m.s-1","parameterCategory":1,"la1":30.2991,"la2":30.254,"lo1":-89.0895,"lo2":-89.0444,"dy":0.0017,"dx":0.0017,"nx":28,"ny":28,"refTime":"2025-08-23T09:00:00:Z","depth":0,"parameterNumber":2,"parameterNumberName":"U-component_of_WINDS"},"data":[0,0,0,0,0,0,0,0,0,0,0,0,0,0,0,0,0,0,0,0,0,0,0,0,0,0,0,0,0,0,0,0,0,0,0,0,0,0,0,0,0,0,0,0,0,0,0,0,0,0,0,0,0,0,0,0,0,0,1.9402,1.9403,0,1.9512,1.9513,1.9514,1.9452,1.9449,1.9446,1.9443,1.9558,1.9564,1.957,0,0,0,0,0,0,0,0,0,0,0,0,0,1.9142,1.9147,1.9402,1.9403,1.9405,1.9512,1.9513,1.9515,1.9453,1.9449,1.9445,1.9442,1.9556,1.9563,1.957,0,0,0,0,0,0,0,0,0,0,0,0,0,1.9254,1.9149,1.9402,1.9386,1.9386,1.9511,1.9513,1.9515,1.9453,1.9449,1.9444,1.944,1.9554,1.9562,1.9571,1.9718,0,0,1.9598,1.9602,0,0,0,0,0,0,0,0,1.9248,1.9264,1.9387,1.9388,1.9388,1.9463,1.9464,1.9583,1.9455,1.9428,1.9443,1.9438,1.953,1.9541,1.9572,1.9724,1.9728,1.9599,1.9604,1.9608,1.9611,0,0,0,0,0,0,0,1.924,1.9259,1.9445,1.9389,1.9389,1.9376,1.9386,1.9486,1.9504,1.943,1.9426,1.9439,1.953,1.9563,1.9574,1.973,1.9599,1.9607,1.9612,1.9616,2.0014,2.0019,0,0,0,0,0,0,1.9233,1.9252,1.9442,1.9449,1.9305,1.9384,1.9396,1.9444,1.9502,1.9507,1.9443,1.9436,1.955,1.9564,1.9578,1.9758,1.9608,1.9617,1.9622,2.0009,2.0015,2.0021,0,0,0,0,0,0,1.9228,1.925,1.9437,1.935,1.9372,1.9393,1.9448,1.9448,1.9482,1.9513,1.9516,1.9474,1.9547,1.9565,1.9685,1.9761,1.9621,1.9629,2.0003,2.0011,2.0018,2.0117,0,0,0,0,0,0,1.922,1.9249,1.9304,1.9351,1.9377,1.9542,1.9452,1.9454,1.9497,1.9489,1.9542,1.9547,1.9545,1.9672,1.9694,1.9771,1.9636,1.9996,2.0006,2.0016,2.0108,2.0128,2.0145,0,0,0,0,0,1.9211,1.9326,1.9307,1.933,1.9446,1.9546,1.9561,1.9556,1.9503,1.956,1.9581,1.9545,1.9749,1.9685,1.9709,1.979,1.9991,2.0003,2.0015,2.0099,2.0124,2.0145,0,0,0,0,0,0,1.9287,1.9332,1.9311,1.9444,1.9492,1.9535,1.9606,1.9581,1.9645,1.9635,1.9626,1.9639,1.9765,1.9788,1.9716,1.9938,1.9862,1.9879,1.9918,1.9942,1.996,1.9953,1.9643,0,0,0,0,0,1.9319,1.9395,1.9431,1.9546,1.9571,1.9585,1.9628,1.962,1.9669,1.9689,1.9718,1.9768,1.9843,1.9893,1.9964,2.011,2.0123,2.0178,2.0196,2.0212,2.0228,2.0312,2.0338,2.006,2.006,2.0059,0,0,1.9386,1.9421,1.9469,1.9562,1.9598,1.968,1.9602,1.969,1.9751,1.9702,1.9818,1.9842,1.9897,2.0032,2.0092,2.0056,2.0308,2.0227,2.0239,2.0247,2.0327,2.0353,2.0377,2.0068,2.0066,2.0065,0,0,1.9552,1.9584,1.9685,1.9723,1.9779,1.9788,1.9812,1.986,1.9874,1.999,1.9957,2.003,2.0159,2.0201,2.024,2.0425,2.0397,2.0448,2.0548,2.063,2.0652,2.0672,2.0743,2.0768,2.0464,2.0464,2.0464,0,1.9629,1.9749,1.974,1.9833,1.9877,1.9836,1.9941,1.9978,2.0055,2.0087,2.0044,2.0208,2.0242,2.0389,2.0435,2.0466,2.0497,2.0444,2.0649,2.0669,2.0687,2.0755,2.0781,2.047,2.0469,2.0469,2.0468,0,1.9844,1.9928,2.0003,2.0079,2.0131,2.0229,2.0237,2.0291,2.0279,2.0294,2.0415,2.0455,2.0536,2.0569,2.0558,2.0716,2.0692,2.0649,2.0574,2.072,2.0784,2.0809,2.0479,2.0477,2.0475,2.0473,0,0,2.0059,2.0131,2.016,2.0196,2.0255,2.0321,2.0419,2.0498,2.0547,2.0601,2.0685,2.0797,2.076,2.0804,2.0797,2.0869,2.102,2.0818,2.0819,2.0858,2.1203,2.1237,2.1267,2.1,2.1005,2.1009,2.12,0,2.0232,2.0402,2.0399,2.0558,2.0639,2.0603,2.0689,2.0737,2.0753,2.0826,2.0844,2.0926,2.0867,2.0894,2.0963,2.0987,2.109,2.0972,2.1083,2.1087,2.1074,2.1299,2.1335,2.1513,2.1224,2.1228,2.1231,0,2.0456,2.052,2.0687,2.074,2.0773,2.085,2.0925,2.0993,2.1048,2.1055,2.1106,2.109,2.1192,2.1112,2.1256,2.1176,2.1221,2.124,2.1247,2.126,2.117,2.1323,2.1569,2.1598,2.1269,2.1266,2.1263,0,2.0602,2.0729,2.0848,2.0879,2.0941,2.0998,2.1026,2.1076,2.1126,2.1191,2.1224,2.13,2.1343,2.1404,2.141,2.135,2.1557,2.1475,2.1569,2.157,2.1617,2.1615,2.1878,2.1639,2.1639,2.1638,2.1638,0,2.0797,2.0903,2.0915,2.0988,2.1106,2.1102,2.122,2.1243,2.1289,2.1368,2.1341,2.1416,2.1418,2.1496,2.1501,2.1622,2.1641,2.1652,2.1653,2.1657,2.1657,2.1689,2.1678,2.1645,2.1644,2.1642,2.1641,0,2.0982,2.0993,2.1121,2.1171,2.1186,2.1271,2.1315,2.1386,2.1401,2.1502,2.1526,2.155,2.1641,2.1652,2.1757,2.1761,2.1909,2.1894,2.1891,2.189,2.1985,2.1978,2.2282,2.2324,2.2054,2.2056,2.2059,0,2.1107,2.1188,2.1247,2.1298,2.1331,2.1413,2.1464,2.1464,2.1518,2.1589,2.1653,2.1741,2.1812,2.1959,2.1987,2.2069,2.2059,2.2161,2.2072,2.2075,2.2067,2.2064,2.2074,2.2179,2.2182,2.2184,2.2186,0,2.1331,2.1333,2.1407,2.1485,2.1547,2.1608,2.1665,2.1709,2.1716,2.178,2.1872,2.1927,2.2037,2.2126,2.2208,2.224,2.2217,2.2214,2.2241,2.2247,2.2244,2.2252,2.1943,2.2207,2.2205,2.2204,2.2202,2.2202,2.1492,2.1564,2.1619,2.1703,2.1747,2.1802,2.1873,2.1898,2.1975,2.2064,2.2059,2.2163,2.222,2.2327,2.2365,2.2448,2.2415,2.2453,2.2463,2.2474,2.2486,2.2228,2.2462,2.2462,2.2461,2.2461,2.246,0,2.1718,2.1752,2.183,2.1912,2.198,2.195,2.2014,2.2073,2.2164,2.2219,2.229,2.2399,2.2487,2.2523,2.261,2.267,2.2662,2.2694,2.2691,2.27,2.2508,2.2478,2.2699,2.2699,2.2699,2.2699,2.2699,2.2699,2.1844,2.1966,2.1976,2.212,2.2153,2.2255,2.2294,2.2347,2.2391,2.2514,2.2587,2.261,2.2659,2.275,2.283,2.2839,2.2874,2.2912,2.2916,2.2737,2.2713,2.269,2.2662,2.2918,2.2919,2.3102,2.3104,2.3105]},{"header":{"parameterUnit":"m.s-1","parameterCategory":1,"la1":30.2991,"la2":30.254,"lo1":-89.0895,"lo2":-89.0444,"dy":0.0017,"dx":0.0017,"nx":28,"ny":28,"refTime":"2025-08-23T09:00:00:Z","depth":0,"parameterNumber":3,"parameterNumberName":"V-component_of_WINDS"},"data":[0,0,0,0,0,0,0,0,0,0,0,0,0,0,0,0,0,0,0,0,0,0,0,0,0,0,0,0,0,0,0,0,0,0,0,0,0,0,0,0,0,0,0,0,0,0,0,0,0,0,0,0,0,0,0,0,0,0,-0.6695,-0.6696,0,-0.6795,-0.6796,-0.6797,-0.6936,-0.6938,-0.694,-0.6942,-0.7042,-0.7043,-0.7043,0,0,0,0,0,0,0,0,0,0,0,0,0,-0.6619,-0.662,-0.6695,-0.6696,-0.6697,-0.6795,-0.6796,-0.6798,-0.6935,-0.6938,-0.6941,-0.6943,-0.7042,-0.7042,-0.7043,0,0,0,0,0,0,0,0,0,0,0,0,0,-0.6679,-0.662,-0.6695,-0.6778,-0.6786,-0.6795,-0.6796,-0.6798,-0.6935,-0.6938,-0.6942,-0.6945,-0.7042,-0.7042,-0.7043,-0.6977,0,0,-0.7045,-0.7046,0,0,0,0,0,0,0,0,-0.6675,-0.6681,-0.6764,-0.6772,-0.6782,-0.6857,-0.6806,-0.6858,-0.6934,-0.6878,-0.6942,-0.6947,-0.6977,-0.6984,-0.6995,-0.6982,-0.6986,-0.7045,-0.7046,-0.7046,-0.7046,0,0,0,0,0,0,0,-0.6671,-0.6678,-0.6735,-0.6765,-0.6776,-0.6809,-0.6821,-0.6817,-0.6907,-0.6883,-0.6893,-0.6904,-0.6983,-0.6994,-0.6998,-0.6988,-0.7045,-0.7046,-0.7046,-0.7047,-0.6924,-0.692,0,0,0,0,0,0,-0.6655,-0.6673,-0.6731,-0.6738,-0.6736,-0.6807,-0.6821,-0.6829,-0.6907,-0.6923,-0.6901,-0.691,-0.6991,-0.6997,-0.7002,-0.6927,-0.7046,-0.7047,-0.7047,-0.6927,-0.6923,-0.6919,0,0,0,0,0,0,-0.6653,-0.6659,-0.6727,-0.6708,-0.672,-0.6805,-0.6812,-0.6829,-0.684,-0.692,-0.6937,-0.6895,-0.6994,-0.7001,-0.6982,-0.6933,-0.7047,-0.7048,-0.6932,-0.6926,-0.6921,-0.6778,0,0,0,0,0,0,-0.665,-0.6657,-0.6633,-0.6707,-0.672,-0.6706,-0.681,-0.6828,-0.6841,-0.6854,-0.692,-0.6934,-0.6997,-0.698,-0.6983,-0.6936,-0.7048,-0.6936,-0.6929,-0.6923,-0.6788,-0.6769,-0.6752,0,0,0,0,0,-0.6647,-0.6589,-0.6632,-0.6638,-0.6693,-0.6703,-0.6711,-0.6785,-0.6837,-0.6813,-0.6864,-0.6932,-0.6939,-0.6977,-0.6981,-0.6933,-0.694,-0.6931,-0.6923,-0.6796,-0.6772,-0.6753,0,0,0,0,0,0,-0.6507,-0.6601,-0.6648,-0.6614,-0.6649,-0.6726,-0.6699,-0.6758,-0.678,-0.679,-0.6882,-0.6895,-0.6864,-0.6898,-0.6939,-0.6873,-0.6949,-0.6941,-0.6851,-0.6829,-0.6812,-0.6802,-0.7049,0,0,0,0,0,-0.6473,-0.6474,-0.6556,-0.6517,-0.6533,-0.6612,-0.662,-0.6674,-0.6714,-0.673,-0.678,-0.6816,-0.6826,-0.683,-0.6845,-0.6795,-0.6809,-0.6764,-0.6746,-0.6731,-0.6722,-0.6695,-0.6675,-0.6891,-0.6892,-0.6892,0,0,-0.6401,-0.6452,-0.6447,-0.649,-0.6524,-0.6522,-0.6624,-0.6618,-0.6616,-0.6729,-0.6713,-0.6751,-0.6797,-0.6761,-0.6748,-0.6788,-0.6666,-0.6721,-0.6708,-0.6707,-0.6684,-0.6663,-0.6645,-0.6886,-0.6887,-0.6888,0,0,-0.6267,-0.6308,-0.6278,-0.6311,-0.6361,-0.6415,-0.6408,-0.6476,-0.6505,-0.6492,-0.6575,-0.6575,-0.6591,-0.6619,-0.6636,-0.6513,-0.6574,-0.6515,-0.642,-0.6393,-0.6376,-0.6361,-0.6313,-0.6295,-0.6507,-0.6506,-0.6506,0,-0.6171,-0.6172,-0.6256,-0.6244,-0.6259,-0.6362,-0.6331,-0.6359,-0.641,-0.6418,-0.6463,-0.6484,-0.6523,-0.6493,-0.6463,-0.6475,-0.6467,-0.6506,-0.6372,-0.6358,-0.6345,-0.63,-0.6282,-0.6498,-0.6499,-0.65,-0.6501,0,-0.6049,-0.6048,-0.6018,-0.6065,-0.6078,-0.6057,-0.6136,-0.6138,-0.6192,-0.624,-0.6223,-0.6273,-0.6298,-0.6296,-0.6349,-0.6273,-0.6296,-0.6355,-0.6433,-0.6315,-0.6274,-0.6258,-0.6487,-0.649,-0.6492,-0.6494,0,0,-0.5827,-0.5922,-0.5909,-0.5931,-0.5995,-0.5995,-0.5978,-0.6003,-0.6001,-0.6034,-0.602,-0.6031,-0.6086,-0.6104,-0.6162,-0.6138,-0.6032,-0.62,-0.6202,-0.6163,-0.5948,-0.5899,-0.5878,-0.6075,-0.6073,-0.607,-0.5942,0,-0.5703,-0.5679,-0.5754,-0.571,-0.5709,-0.5807,-0.5792,-0.5828,-0.5873,-0.5877,-0.5927,-0.5932,-0.6006,-0.6017,-0.5999,-0.6049,-0.5989,-0.606,-0.6059,-0.6058,-0.604,-0.5858,-0.5807,-0.5684,-0.5928,-0.5925,-0.5923,0,-0.5554,-0.5578,-0.5534,-0.5598,-0.5601,-0.5586,-0.5613,-0.5617,-0.566,-0.5694,-0.5714,-0.5781,-0.5767,-0.5844,-0.5825,-0.587,-0.5876,-0.59,-0.5897,-0.5896,-0.598,-0.5847,-0.5647,-0.5626,-0.59,-0.5902,-0.5903,0,-0.5391,-0.5414,-0.539,-0.5406,-0.5481,-0.5468,-0.5498,-0.5545,-0.5554,-0.5579,-0.5585,-0.5607,-0.5618,-0.5633,-0.5703,-0.5754,-0.5673,-0.5758,-0.5698,-0.5695,-0.5673,-0.5672,-0.5465,-0.5683,-0.5684,-0.5684,-0.5684,0,-0.5241,-0.5209,-0.5317,-0.5301,-0.5268,-0.5355,-0.5319,-0.5359,-0.54,-0.5392,-0.5481,-0.5471,-0.5567,-0.5568,-0.5623,-0.5595,-0.5601,-0.5626,-0.564,-0.5615,-0.5611,-0.5616,-0.5624,-0.5679,-0.568,-0.5681,-0.5682,0,-0.5052,-0.5123,-0.5103,-0.5176,-0.5194,-0.5165,-0.5228,-0.5215,-0.5267,-0.5256,-0.5258,-0.5338,-0.5343,-0.5416,-0.5438,-0.5474,-0.5423,-0.5457,-0.5408,-0.5417,-0.5351,-0.5354,-0.5136,-0.511,-0.5349,-0.5346,-0.5344,0,-0.4949,-0.4927,-0.4998,-0.4999,-0.5026,-0.5028,-0.5038,-0.5122,-0.5129,-0.5175,-0.5156,-0.517,-0.5184,-0.5188,-0.5247,-0.5263,-0.5294,-0.5217,-0.5297,-0.5271,-0.5287,-0.5285,-0.5281,-0.5197,-0.5194,-0.5192,-0.519,0,-0.4757,-0.4794,-0.4805,-0.4828,-0.4837,-0.4859,-0.4887,-0.4883,-0.4976,-0.4979,-0.4986,-0.4997,-0.5019,-0.5029,-0.5056,-0.5087,-0.5151,-0.5165,-0.5151,-0.5123,-0.5094,-0.5104,-0.5356,-0.5168,-0.5171,-0.5172,-0.5173,-0.5174,-0.4605,-0.4589,-0.4635,-0.4644,-0.4674,-0.4697,-0.4688,-0.4739,-0.4746,-0.477,-0.4821,-0.4819,-0.4861,-0.4904,-0.4929,-0.4928,-0.4967,-0.4948,-0.4943,-0.4935,-0.492,-0.5098,-0.4934,-0.4934,-0.4935,-0.4936,-0.4936,0,-0.4414,-0.4449,-0.4457,-0.4492,-0.4498,-0.4563,-0.4596,-0.4596,-0.4594,-0.4629,-0.4641,-0.4647,-0.4658,-0.4718,-0.4734,-0.4722,-0.4752,-0.4723,-0.4722,-0.4727,-0.4886,-0.4894,-0.4698,-0.4698,-0.4698,-0.4698,-0.4698,-0.4698,-0.4315,-0.4289,-0.4331,-0.4319,-0.4355,-0.4354,-0.4367,-0.4389,-0.4416,-0.4419,-0.4429,-0.4468,-0.4512,-0.4533,-0.4544,-0.4562,-0.4561,-0.4521,-0.4547,-0.4693,-0.4716,-0.4738,-0.4746,-0.4521,-0.4521,-0.4388,-0.4387,-0.4386]}]]